This is the latest recevied weather packets stored in our database for station/object WA6ODQ-13. If no packets are shown the sender has not sent any weather packets the latest 10 day(s).
| Time | Temp. | Humidity | Pressure | Rain* | Wind** | Luminosity | Snow |
|---|---|---|---|---|---|---|---|
| 1787974619 | 20.56° C | 66% | 1011 hPa | 0 mm | - | 0 W/m² | - |
| 1787974314 | 20.56° C | 66% | 1011.3 hPa | 0 mm | - | 0 W/m² | - |
| 1787974013 | 20.56° C | 66% | 1011.3 hPa | 0 mm | - | 0 W/m² | - |
| 1787973709 | 20.56° C | 65% | 1011.2 hPa | 0 mm | - | 0 W/m² | - |
| 1787973408 | 20.56° C | 64% | 1011 hPa | 0 mm | - | 0 W/m² | - |
| 1787973103 | 21.11° C | 64% | 1011.1 hPa | 0 mm | - | 0 W/m² | - |
| 1787972799 | 21.11° C | 64% | 1011.1 hPa | 0 mm | - | 0 W/m² | - |
| 1787972498 | 21.11° C | 64% | 1011.3 hPa | 0 mm | - | 0 W/m² | - |
| 1787972197 | 21.11° C | 64% | 1011.3 hPa | 0 mm | - | 0 W/m² | - |
| 1787971892 | 21.67° C | 63% | 1011.1 hPa | 0 mm | - | 1 W/m² | - |
| 1787971587 | 21.67° C | 63% | 1011.1 hPa | 0 mm | - | 2 W/m² | - |
| 1787971284 | 21.67° C | 62% | 1011 hPa | 0 mm | - | 4 W/m² | - |
| 1787970979 | 21.67° C | 62% | 1011.2 hPa | 0 mm | - | 6 W/m² | - |
| 1787970678 | 22.22° C | 61% | 1011.3 hPa | 0 mm | - | 8 W/m² | - |
| 1787970372 | 22.22° C | 60% | 1011.3 hPa | 0 mm | - | 11 W/m² | - |
| 1787970071 | 22.78° C | 60% | 1011.4 hPa | 0 mm | - | 14 W/m² | - |
| 1787969770 | 22.78° C | 59% | 1011.4 hPa | 0 mm | - | 18 W/m² | - |
| 1787969469 | 22.78° C | 59% | 1011.3 hPa | 0 mm | - | 21 W/m² | - |
| 1787969164 | 22.78° C | 58% | 1011.5 hPa | 0 mm | - | 29 W/m² | - |
| 1787968859 | 23.33° C | 58% | 1011.5 hPa | 0 mm | - | 39 W/m² | - |
| 1787968558 | 22.78° C | 59% | 1011.4 hPa | 0 mm | - | 48 W/m² | - |
| 1787968253 | 22.78° C | 59% | 1011.5 hPa | 0 mm | - | 65 W/m² | - |
| 1787967948 | 22.78° C | 59% | 1011.4 hPa | 0 mm | - | 54 W/m² | - |
| 1787967645 | 22.78° C | 59% | 1011.6 hPa | 0 mm | - | 66 W/m² | - |
| 1787967339 | 22.78° C | 59% | 1011.6 hPa | 0 mm | - | 68 W/m² | - |
* Rain latest hour (hover to see other rain measurements)
** Current wind speed in m/s (hover to see current wind gust speed)